Lexington Weather

Lexington, Massachusetts, USA

73°F
8/7/2020 11:41am 
  • Lexington Conditions: Clear
  • Temperature: 73.4°F / 23.0°CWarmer 2.5°F than last hour.
  • Dew Point: 63.5°FIncreased 0.2°Fsince last hour.
  • Relative Humidity: 71%Decreased 6.0% since last hour.
  • Wind: Calm, 10-min avg: Calm, gust: 2 mph
  • Barometer: 30.13 inFalling 0.02  inHg/hr Falling Slowly
  • Visibility: 10 miles
  • Rain Today: 0.00 in
  •   

Regional Weather Roundup
for Boston / Norton, MA

        
000
ASUS41 KBOX 051404
RWRBOX

REGIONAL WEATHER ROUNDUP
NATIONAL WEATHER SERVICE BOSTON/NORTON MA
1000 AM EDT WED AUG 05 2020

NOTE:  "FAIR" INDICATES FEW OR NO CLOUDS BELOW 12,000 FEET WITH NO 
SIGNIFICANT WEATHER AND/OR OBSTRUCTIONS TO VISIBILITY.

MAZALL-051500-
EASTERN MASSACHUSETTS
  
CITY           SKY/WX    TMP DP  RH WIND       PRES   REMARKS
BOSTON         MOSUNNY   82  65  56 SW8       29.98R                  
BEVERLY        SUNNY     81  66  60 W8        29.97R                  
LAWRENCE       SUNNY     80  67  64 SW8       29.98S                  
BEDFORD        SUNNY     81  68  64 SW8       29.97R                  
BLUE HILL        N/A     80  66  62 W7        30.00R                  
NORWOOD        MOSUNNY   83  67  58 W8        29.98R                  
MARSHFIELD     SUNNY     84  70  61 W10       29.98R                  
PLYMOUTH       MOSUNNY   80  71  74 S8        30.00R                  
TAUNTON        SUNNY     82  70  66 S7        29.99S                  
NEW BEDFORD    MOSUNNY   82  72  71 S10       30.00R                  
$$

MAZALL-051500-
CAPE COD AND THE ISLANDS
  
CITY           SKY/WX    TMP DP  RH WIND       PRES   REMARKS
FALMOUTH       CLOUDY    79  72  78 SW13      30.01S                  
HYANNIS        PTSUNNY   80  73  79 SW15G21   30.00S                  
CHATHAM        MOSUNNY   81  72  74 SW12G21   30.02S                  
NANTUCKET      MOSUNNY   77  71  82 S14       30.03R                  
MARTHAS VNYRD  CLOUDY    77  72  84 SW9G18    30.02R                  
$$
 
MAZALL-051500-
CENTRAL AND WESTERN MASSACHUSETTS
  
CITY           SKY/WX    TMP DP  RH WIND       PRES   REMARKS
WORCESTER      SUNNY     77  64  64 SW12      30.02R                  
FITCHBURG      SUNNY     80  64  58 VRB7      29.99S                  
ORANGE         SUNNY     78  65  63 SW6       30.00S                  
SPRINGFIELD    MOSUNNY   78  65  65 SW5       29.98S                  
WESTFIELD      SUNNY     77  67  71 SW6       29.98S                  
NORTH ADAMS    NOT AVBL                                               
PITTSFIELD     SUNNY     75  65  70 SW7       30.00S                  
$$
 
RIZALL-051500-
RHODE ISLAND
  
CITY           SKY/WX    TMP DP  RH WIND       PRES   REMARKS
PROVIDENCE     MOSUNNY   80  71  74 S10G18    29.99F                  
NEWPORT        SUNNY     78  71  79 VRB5      30.00S                  
BLOCK ISLAND   SUNNY     76  70  82 SW14      30.02S                  
SMITHFIELD     SUNNY     80  71  74 VRB3      30.00F                  
WESTERLY       SUNNY     79  70  74 S9        30.01S                  
$$
 
CTZALL-051500-
CONNECTICUT
  
CITY           SKY/WX    TMP DP  RH WIND       PRES   REMARKS
BRADLEY INTL   MOSUNNY   81  64  56 W7        29.98S                  
HARTFORD       SUNNY    N/A N/A N/A SW8         N/A                   
BRIDGEPORT     NOT AVBL                                               
DANBURY        SUNNY     78  67  68 VRB3      30.02R                  
GROTON         SUNNY     75  71  87 S8        29.99S                  
NEW HAVEN        N/A    N/A N/A N/A MISG      30.00R                  
CHESTER        NOT AVBL                                               
MERIDEN        SUNNY     81  65  58 S5        29.99S                  
WILLIMANTIC    SUNNY     81  67  62 SW6       29.99S                  
OXFORD         SUNNY     77  66  68 S6        30.03R                  
$$

MEZ002-015-021-024-NHZ003-005-008-011-012-014-VTZ005-008-051500-
NORTHERN NEW ENGLAND
  
CITY           SKY/WX    TMP DP  RH WIND       PRES   REMARKS
PORTLAND ME    MOSUNNY   81  65  58 W9        29.94F                  
BANGOR ME      MOSUNNY   78  65  63 SW10      29.92S                  
CONCORD NH     SUNNY     79  66  64 W7        29.97R                  
MANCHESTER NH  MOSUNNY   80  65  59 SW8       29.96R                  
NASHUA NH      SUNNY     80  69  69 VRB3      29.98S                  
PORTSMOUTH NH  MOSUNNY   81  64  56 W5        29.94S                  
JAFFREY NH     SUNNY     76  61  59 SW8G18    30.01S                  
KEENE NH       SUNNY     77  65  66 SW8       29.99S                  
BURLINGTON VT  MOSUNNY   76  63  64 S12       29.91S                  
MT. WASHINGTON FOG       50  50 100 W43         N/A  VSB 1/16         
$$

NYZ052-076-051500-
EASTERN NEW YORK
  
CITY           SKY/WX    TMP DP  RH WIND       PRES   REMARKS
ALBANY         MOSUNNY   73  65  75 S5        29.99R                  
NEW YORK CITY  MOSUNNY   82  66  58 CALM      29.99R                  
$$
 
ANZALL-051500-
MARINE OBSERVATIONS
  
STATION/POSITION TIME  TEMP    WIND        PRES    VSBY  WAVE
                       AIR SEA DIR/SP/G                  HT/PER
                 (UTC) (F)     (DEG/KT/KT) (MB)    (MI)  (FT/S)
BOSTON BUOY      1350   65 62  150/  6/  8 1014.0R         2/ 5
BUZZARDS BAY     1300          220/ 15/ 16 1016.8R
NANTUCKET SOUND  1340      76  200/ 16/ 19   N/A
MASS BAY-STELLWA 1304   66     220/  6/  6 1012.8S  1 7/8  3/ 5
ISLE OF SHOALS   1300   67     200/ 13/ 13 1014.0R
S OF BLOCK IS    1326      71                N/A           8/ 9
$$

......................KEY.........................
  SKY/WX - SKY CONDITION/PRESENT WEATHER
  TMP    - TEMPERATURE IN FAHRENHEIT
  DWPT   - DEWPOINT IN FAHRENHEIT
  RH     - RELATIVE HUMIDITY IN PERCENT
  WIND   - DIRECTION AND SPEED IN MPH
  PRES   - MEAN SEA LEVEL PRESSURE IN INCHES OF HG
  WCI    - WIND CHILL INDEX
  VSB    - VISIBILITY IN MILES
  HX     - HEAT INDEX
  TC     - TEMPERATURE IN CELSIUS
  VRB    - VARIABLE WIND DIRECTION
  N/A    - NOT AVAILABLE
  
      

Other recent Regional Weather Roundups

Fri Aug 7, 11:04am

Fri Aug 7, 10:04am

Fri Aug 7, 9:04am

Fri Aug 7, 8:04am

Fri Aug 7, 7:04am

Fri Aug 7, 6:04am

Fri Aug 7, 5:04am

Fri Aug 7, 4:04am

Fri Aug 7, 3:04am

Fri Aug 7, 2:04am

Fri Aug 7, 1:05am

Fri Aug 7, 12:04am

Thu Aug 6, 11:04pm

Thu Aug 6, 10:04pm

Thu Aug 6, 9:04pm

Thu Aug 6, 8:04pm

Thu Aug 6, 7:04pm

Thu Aug 6, 6:04pm

Thu Aug 6, 5:04pm

Thu Aug 6, 4:05pm

Thu Aug 6, 3:04pm

Thu Aug 6, 2:05pm

Thu Aug 6, 1:04pm

Thu Aug 6, 12:04pm

Thu Aug 6, 11:04am

Thu Aug 6, 10:04am

Thu Aug 6, 9:04am

Thu Aug 6, 8:04am

Thu Aug 6, 7:04am

Thu Aug 6, 6:04am

Thu Aug 6, 5:04am

Thu Aug 6, 4:04am

Thu Aug 6, 3:04am

Thu Aug 6, 2:05am

Thu Aug 6, 1:04am

Thu Aug 6, 12:04am

Wed Aug 5, 11:04pm

Wed Aug 5, 10:04pm

Wed Aug 5, 9:04pm

Wed Aug 5, 8:05pm

Wed Aug 5, 7:04pm

Wed Aug 5, 6:04pm

Wed Aug 5, 5:04pm

Wed Aug 5, 4:05pm

Wed Aug 5, 3:04pm

Wed Aug 5, 2:04pm

Wed Aug 5, 1:04pm

Wed Aug 5, 12:04pm

Wed Aug 5, 11:04am

Wed Aug 5, 9:04am

Wed Aug 5, 8:04am

Wed Aug 5, 7:04am

Wed Aug 5, 6:04am

Wed Aug 5, 5:04am

Wed Aug 5, 4:04am

Wed Aug 5, 3:04am

Wed Aug 5, 2:05am

Wed Aug 5, 1:04am

Wed Aug 5, 12:05am

Tue Aug 4, 11:05pm

Tue Aug 4, 10:05pm

Tue Aug 4, 9:04pm

Tue Aug 4, 8:04pm

Tue Aug 4, 7:05pm

Tue Aug 4, 6:05pm

Tue Aug 4, 5:05pm

Tue Aug 4, 4:05pm

Tue Aug 4, 3:04pm

Tue Aug 4, 2:05pm

Tue Aug 4, 1:04pm

Tue Aug 4, 12:05pm

Tue Aug 4, 11:04am

Tue Aug 4, 10:04am

Tue Aug 4, 9:04am

Tue Aug 4, 8:04am

Tue Aug 4, 7:04am

Tue Aug 4, 6:04am

Tue Aug 4, 5:04am

Tue Aug 4, 4:04am

Tue Aug 4, 3:04am

Tue Aug 4, 2:04am

Tue Aug 4, 1:04am

Tue Aug 4, 12:04am

Mon Aug 3, 11:04pm

Mon Aug 3, 10:04pm

Mon Aug 3, 9:04pm

Mon Aug 3, 8:05pm

Mon Aug 3, 7:04pm

Mon Aug 3, 6:04pm

Mon Aug 3, 5:04pm

Mon Aug 3, 4:05pm

Mon Aug 3, 3:04pm

Mon Aug 3, 2:04pm

Mon Aug 3, 1:04pm

Mon Aug 3, 12:05pm

Mon Aug 3, 11:04am

Mon Aug 3, 10:04am

Mon Aug 3, 9:05am

Mon Aug 3, 8:04am

Mon Aug 3, 7:04am

Mon Aug 3, 6:04am

Mon Aug 3, 5:04am

Mon Aug 3, 4:04am

Mon Aug 3, 3:04am

Mon Aug 3, 2:04am

Mon Aug 3, 1:04am

Mon Aug 3, 12:05am

Sun Aug 2, 11:04pm

Sun Aug 2, 10:04pm

Sun Aug 2, 9:04pm

Sun Aug 2, 8:04pm

Sun Aug 2, 7:04pm

Sun Aug 2, 6:04pm

Sun Aug 2, 5:04pm

Sun Aug 2, 4:05pm

Sun Aug 2, 3:04pm

Sun Aug 2, 2:05pm

Sun Aug 2, 1:04pm

Sun Aug 2, 12:04pm

Sun Aug 2, 11:04am

Sun Aug 2, 10:04am

Sun Aug 2, 9:05am

Sun Aug 2, 8:05am

Sun Aug 2, 7:04am

Sun Aug 2, 6:04am

Sun Aug 2, 5:04am

Sun Aug 2, 4:05am

Sun Aug 2, 3:04am

Sun Aug 2, 2:04am

Sun Aug 2, 1:04am

Sun Aug 2, 12:05am

Sat Aug 1, 11:04pm

Sat Aug 1, 10:04pm

Sat Aug 1, 9:04pm

Sat Aug 1, 8:05pm

Sat Aug 1, 7:04pm

Sat Aug 1, 6:04pm

Sat Aug 1, 5:05pm

Sat Aug 1, 4:05pm

Sat Aug 1, 3:04pm

Sat Aug 1, 2:04pm

Sat Aug 1, 1:04pm

Sat Aug 1, 12:04pm

Sat Aug 1, 11:05am

Sat Aug 1, 10:05am

Sat Aug 1, 9:04am

Sat Aug 1, 8:04am

Sat Aug 1, 7:04am

Sat Aug 1, 6:04am

Sat Aug 1, 5:04am

Sat Aug 1, 4:05am

Sat Aug 1, 3:04am

Sat Aug 1, 2:04am

Sat Aug 1, 1:04am

Sat Aug 1, 12:05am

Fri Jul 31, 11:05pm

Fri Jul 31, 10:04pm

Fri Jul 31, 9:04pm

Fri Jul 31, 8:05pm

Fri Jul 31, 7:05pm

Fri Jul 31, 6:04pm

Fri Jul 31, 5:04pm

Fri Jul 31, 4:05pm

Fri Jul 31, 3:04pm

Fri Jul 31, 2:05pm

Fri Jul 31, 1:04pm

Fri Jul 31, 12:04pm

Meta data:

ID: 176886a8-9060-437e-b947-926b2ccb749d
Link: https://api.weather.gov/products/176886a8-9060-437e-b947-926b2ccb749d